Location: Newark
(48.1500°N, 2.9667°W)
Time: 11:22:59
(UTC+00:00)

A-11 Canister half - Pass Details

Date: 25 January 2020
Orbit: 1517 x 1683 km, 47.2° (Epoch: 22 February)

Event Time Altitude Azimuth Distance (km) Brightness Sun altitude
Exits shadow 07:00:59 - 280° (W) 3,796 10.4 -8.2°
Reaches altitude 10° 07:01:26 10° 278° (W) 3,683 10.3 -8.1°
Maximum altitude 07:08:40 27° 226° (SW) 2,622 10.0 -7.0°
Drops below altitude 10° 07:16:01 10° 174° (S) 3,728 11.4 -5.8°
Sets 07:19:43 0° 163° (SSE) 4,732 12.2 -5.3°
